Location: Leo
(52.0556°N, 112.3605°W)
Time: 21:07:16
(UTC+00:00)

FO-29 - Visible Passes

Search period start: 29 November 2023 00:00
Search period end: 09 December 2023 00:00
Orbit: 800 x 1321 km, 98.6° (Epoch: 29 November)

Date Brightness Start Highest point End Pass type
(mag) Time Alt. Az. Time Alt. Az. Time Alt. Az.
29 Nov 11.9 09:29:12 10° NNE 09:31:57 22° NE 09:31:57 22° NE visible
29 Nov 10.6 11:13:57 10° NNE 11:18:26 43° N 11:18:26 43° N visible
29 Nov 11.1 13:00:02 10° N 13:04:54 22° NW 13:04:54 22° NW visible
30 Nov 12.5 08:35:41 10° NE 08:36:04 11° NE 08:36:04 11° NE visible
30 Nov 11.2 10:18:47 10° NNE 10:22:32 33° NNE 10:22:32 33° NNE visible
30 Nov 10.7 12:04:13 10° N 12:09:01 35° NNW 12:09:01 35° NNW visible
30 Nov 11.5 13:51:16 10° NNW 13:54:07 13° NW 13:55:29 12° NW visible
01 Dec 12.0 09:24:06 10° NNE 09:26:40 20° NE 09:26:40 20° NE visible
01 Dec 10.7 11:08:46 10° NNE 11:13:08 41° N 11:13:08 41° N visible
01 Dec 11.0 12:54:46 10° N 12:59:36 23° NW 12:59:36 23° NW visible
02 Dec 12.5 08:30:44 10° NE 08:30:47 10° NE 08:30:47 10° NE visible
02 Dec 11.3 10:13:38 10° NNE 10:17:15 32° NE 10:17:15 32° NE visible
02 Dec 10.7 11:59:00 10° N 12:03:43 36° NNW 12:03:43 36° NNW visible
02 Dec 11.5 13:45:51 10° NNW 13:49:05 14° NW 13:50:12 13° NW visible
03 Dec 12.0 09:19:00 10° NNE 09:21:23 19° NE 09:21:23 19° NE visible
03 Dec 10.8 11:03:35 10° NNE 11:07:51 40° N 11:07:51 40° N visible
03 Dec 11.0 12:49:31 10° N 12:54:19 24° NW 12:54:19 24° NW visible
04 Dec 11.4 10:08:29 10° NNE 10:11:59 30° NE 10:11:59 30° NE visible
04 Dec 10.8 11:53:49 10° N 11:58:27 36° NNW 11:58:27 36° NNW visible
04 Dec 11.4 13:40:28 10° N 13:44:05 15° NW 13:44:56 14° NW visible
05 Dec 12.1 09:13:55 10° NNE 09:16:06 18° NE 09:16:06 18° NE visible
05 Dec 10.9 10:58:25 10° NNE 11:02:35 38° N 11:02:35 38° N visible
05 Dec 11.0 12:44:17 10° N 12:49:03 25° NW 12:49:03 25° NW visible
06 Dec 11.5 10:03:22 10° NNE 10:06:43 28° NE 10:06:43 28° NE visible
06 Dec 10.8 11:48:38 10° N 11:53:11 36° NNW 11:53:11 36° NNW visible
06 Dec 11.4 13:35:09 10° N 13:39:05 15° NW 13:39:40 15° NW visible
07 Dec 12.2 09:08:51 10° NNE 09:10:51 17° NE 09:10:51 17° NE visible
07 Dec 11.0 10:53:16 10° NNE 10:57:19 37° NNE 10:57:19 37° NNE visible
07 Dec 11.0 12:39:04 10° N 12:43:47 26° NW 12:43:47 26° NW visible
08 Dec 11.6 09:58:15 10° NNE 10:01:27 27° NE 10:01:27 27° NE visible
08 Dec 10.9 11:43:27 10° N 11:47:56 36° NNW 11:47:56 36° NNW visible
08 Dec 11.4 13:29:51 10° N 13:34:06 16° NW 13:34:24 16° NW visible
